Location: Gerlach
(40.6516°N, 119.3568°W)
Time: 15:57:46
(UTC-07:00)

A-11 Canister half - Pass Details

Date: 20 February 2024
Orbit: 1525 x 1683 km, 47.3° (Epoch: 22 April)

Event Time Altitude Azimuth Distance (km) Brightness Sun altitude
Rises 19:53:45 0° 197° (SSW) 4,776 11.7 -26.4°
Reaches altitude 10° 19:57:22 10° 187° (S) 3,770 11.0 -27.1°
Enters shadow 20:02:36 26° 157° (SSE) 2,678 9.9 -28.0°
